906  
ASUS46 KPDT 050825  
RWRPDT  
PENDLETON REGIONAL WEATHER ROUNDUP  
NATIONAL WEATHER SERVICE PENDLETON OREGON  
1200 AM PST MON DEC 5 2016  
 
NOTE: FAIR INDICATES FEW OR NO CLOUDS BELOW 12,000 FEET WITH NO  
SIGNIFICANT WEATHER AND/OR S TO VISIBILITY
.  
 
# INDICATES UNOFFICIAL STATION AND DATA  
 
WAZ520-050910-  
EAST SLOPES OF WASHINGTON CASCADES  
 
CITY SKY/WX TMP DP RH WIND PRES REMARKS
 
#CLE ELUM HS N/A 27 23 85 SW5 30.01S  
#CLE ELUM LAKE N/A 26 23 88 CALM 30.11S  
#GLENWOOD N/A 33 26 75 SW7 30.14R  
#MANASTASH CYN N/A 24 16 71 CALM 29.97R  
#NELSON 3SW N/A 25 22 88 CALM 30.34S  
#NILE N/A 22 20 92 CALM 29.37S  
#RONALD 2NW N/A 24 N/A N/A W2 30.01S  
#TEANAWAY 4NE N/A 24 21 88 CALM N/A  
#TROUT LAKE 1NE N/A 29 26 88 SW5 30.18R  
#TROUT LAKE 1E N/A 30 27 88 CALM 30.08R  

 
 
WAZ521-050910-  
SIMCOE HIGHLANDS  
 
CITY SKY/WX TMP DP RH WIND PRES REMARKS
 
#CENTERVILLE 1SWN/A 30 25 81 SW7 30.13S  
#GOLDENDALE 1NE N/A 29 18 63 SW6 N/A  
#GOLDENDALE 4W N/A 28 7 40 CALM 30.13R  
#GOODNOE HILLS N/A 33 23 66 SE2 30.01R  
#LYLE 6NE N/A 33 29 85 SW8 30.14R  

 
 
WAZ026-050910-  
KITTITAS VALLEY  
 
CITY SKY/WX TMP DP RH WIND PRES REMARKS
 
ELLENSBURG AP CLEAR 29 21 72 W6 30.05R  
#ELLENSBURG CWU N/A 30 24 78 CALM 30.05R  
#ELLENSBURG 3NE N/A 29 22 75 CALM 30.04S  
#ELLENSBURG 1E N/A 30 N/A N/A NW1 N/A  
#KITTITAS 4N N/A 27 21 78 SW2 30.07S  
#KITTITAS 3S N/A 22 18 84 CALM 30.10R  
#THORP 6N N/A 28 24 85 W16G24 30.11S WCI 16  

 
 
WAZ027-050910-  
YAKIMA VALLEY  
 
CITY SKY/WX TMP DP RH WIND PRES REMARKS
 
SUNNYSIDE AP CLEAR 23 19 84 CALM 30.11S  
YAKIMA AIRPORT CLEAR 29 18 63 CALM 30.09R  
YAKIMA-VAGABOND CLEAR 30 17 58 CALM 30.05S  
#GRANDVIEW N/A 26 17 68 CALM 30.14S  
#MABTON N/A 28 21 75 CALM 30.11R  
#NACHES 2SW N/A 30 21 69 CALM 29.99S  
#TERRACE HTS N/A 33 19 56 CALM 30.08R  
#TOPPENISH N/A 30 21 69 CALM 30.04R  
#WEST VALLEY N/A 31 18 58 CALM 30.10R  
#W YAKIMA N/A 32 19 58 CALM 30.11R  
#WHITE SWAN 5E N/A 25 18 74 CALM 30.12R  
#WILEY CITY 3W N/A 28 13 53 CALM 30.03R  

 
 
WAZ028-050910-  
LOWER COLUMBIA BASIN...WASHINGTON  
 
CITY SKY/WX TMP DP RH WIND PRES REMARKS
 
HANFORD MOCLEAR 32 16 51 W7 30.08R  
PASCO PTCLDY 32 21 63 SW10 30.13R  
PROSSER AWOS N/A 27 21 78 CALM 30.15S  
RICHLAND AWOS PTCLDY 33 21 61 SW6 30.13R  
#BENTON CITY N/A 29 20 69 CALM 30.04R  
#CONNELL 5N N/A 24 20 84 SW2 30.11R  
#CONNELL 5NW N/A 26 21 81 SW1 30.07R  
#ELTOPIA 6NW N/A 31 21 66 CALM 29.05R  
#KAHLOTUS N/A 27 21 78 NW6 30.10R  
#KENNEWICK 3S N/A 32 20 61 CALM 30.13R  
#PATERSON N/A 34 26 72 N1 30.14R  
#SAGEMOOR 2W N/A 32 20 61 W5 29.96S  
#TOUCHET 2S N/A 35 26 69 SW15 30.11R WCI 25  
#WEST PASCO N/A 35 21 56 SW1 30.14R  

 
 
WAZ029-050910-  
FOOTHILLS OF THE BLUES...WASHINGTON  
 
CITY SKY/WX TMP DP RH WIND PRES REMARKS
 
WALLA WALLA AP CLEAR 31 23 72 S12 30.11R WCI 22  
#CLYDE 6NW N/A 28 21 75 CALM 30.11R  
#DAYTON SCHOOL N/A 32 19 58 S9 30.09R  
#LOWDEN 2SE N/A 31 25 78 CALM 30.10R  
#PLEASANT VIEW 1N/A 26 20 78 S7 30.15R  
#PRESCOTT N/A 29 25 85 CALM 30.13R  
#WHITMAN COLLEGEN/A 32 25 75 SE3 30.19R  
#WAITSBURG 5S N/A 29 24 81 S7 30.23R  
#WAITSBURG 8N N/A 26 N/A N/A S7 30.11R  
#WALLA WALLA U N/A 31 25 78 CALM 30.15  
#WHITMAN MISSIONN/A 30 25 81 CALM 30.16R  

 
 
WAZ030-050910-  
BLUE MOUNTAINS...WASHINGTON  
 
CITY SKY/WX TMP DP RH WIND PRES REMARKS
 
#DIXIE 5SE N/A 33 32 96 SW15 29.95R WCI 23  
#SKI BLUEWOOD N/A 19 17 92 N2 29.93R  

 
 
ORZ009-041-WAZ024-050910-  
COLUMBIA RIVER GORGE  
 
CITY SKY/WX TMP DP RH WIND PRES REMARKS
 
HOOD RIVER AP PTCLDY 36 32 85 CALM 30.19R  
THE DALLES AP PTCLDY 41 30 65 S8 30.18R  
#ARLINGTON AIRPON/A 34 27 75 CALM 30.16S  
#ARLINGTON HS N/A 37 25 61 CALM 30.07R  
#CELILO DOT N/A 39 27 62 SW7 N/A  
#LYLE N/A 40 34 79 W9G26 30.20S  
#MOSIER 1S N/A 36 18 47 W9 N/A  
#MURDOCK N/A 40 32 73 NW12 30.14S WCI 33  
#RUFUS DOT N/A 42 28 57 W16 N/A WCI 34  
#SMITHVILLE N/A 40 33 76 N7 30.13R  
 

 
 
ORZ510-050910-  
NORTH CENTRAL OREGON  
 
CITY SKY/WX TMP DP RH WIND PRES REMARKS
 
#ANTELOPE N/A 28 23 81 W5 30.06S  
#CHENOWITH 1W N/A 31 29 92 W24 N/A WCI 18  
#COW CYN RST AREN/A 28 N/A N/A SW8 N/A  
#DUFUR 9E N/A 31 23 72 W15 30.21R WCI 20  
#GRASS VALLEY 1SN/A 26 21 81 SW5 30.03R  
#KENT DOT N/A 26 17 68 N9 N/A  
#MAUPIN SCHOOL N/A 31 26 81 CALM 30.18S  
#MORO SCHOOL N/A 33 27 78 W14 30.09S WCI 23  
#SHANIKO 5WSW N/A 25 17 71 N12 N/A WCI 14  
#SHANIKO 4NW N/A 25 20 81 SW8 30.05R  
#WAPANITIA AIRPON/A 33 25 72 W7 30.19R  
#WASCO DOT N/A 33 26 75 SW3 N/A  
#WASCO 5NE N/A 32 27 82 N9 30.15R  

 
 
ORZ511-050910-  
CENTRAL OREGON  
 
CITY SKY/WX TMP DP RH WIND PRES REMARKS
 
BEND AIRPORT PTCLDY 27 21 78 CALM 30.11R  
MADRAS AIRPORT PTCLDY 27 21 78 S9 30.15S  
PRINEVILLE AP CLOUDY 23 21 92 S6 30.12S  
REDMOND AIRPORT PTCLDY 21 17 84 CALM 30.12R  
#ASHWOOD SCHOOL N/A 31 24 75 CALM 30.08F  
#BEND 1SW N/A 23 20 88 CALM N/A  
#BEND-AWBREY N/A 25 23 92 CALM 30.19S  
#BEND-KIM LN N/A 22 18 84 CALM 30.03S  
#CULVER N/A 27 21 78 CALM 30.14R  
#CULVER 8W N/A 21 16 81 CALM 30.11S  
#LAKE BILLY CHINN/A 27 N/A N/A CALM 30.23R  
#MADRAS 4S N/A N/A N/A N/A N7 30.19S  
#POWELL BUTTE 3EN/A 23 20 88 E1 N/A  
#POWELL BUTTE N/A 27 19 71 W5 30.06S  
#PRINEVILLE 3N N/A 24 22 92 CALM 30.23S  
 

 
 
 
ORZ509-050910-  
EAST SLOPES OF OREGON CASCADES  
 
CITY SKY/WX TMP DP RH WIND PRES REMARKS
 
SISTERS AWOS N/A 25 21 84 CALM 30.07S  
#BLUE BOX PASS N/A 24 N/A N/A NW1 N/A  
#CAMP SHERMAN N/A 24 21 88 CALM 30.29R  
#LA PINE DOT N/A 22 18 84 W3 N/A  
#LA PINE 4NW N/A 22 18 84 CALM 30.25F  
#LAVA BUTTE DOT N/A 18 16 92 CALM N/A  
#SISTERS AIRPOR N/A 23 23 100 CALM 30.17S  
#SISTERS ODOT N/A 22 N/A N/A CALM N/A  
#SISTERS 3N N/A 23 17 77 CALM 30.11S  
#SUNRIVER N/A 21 19 92 CALM 30.22R  
#SUTTLE LK DOT N/A 21 21 100 NW23G44 N/A WCI 5  
#TUMALO 3W N/A 25 19 78 W2 30.09R  
#WANOGA BUTTE D N/A 16 11 80 NW8 N/A  
 

 
 
ORZ044-050910-  
LOWER COLUMBIA BASIN...OREGON  
 
CITY SKY/WX TMP DP RH WIND PRES REMARKS
 
HERMISTON PTCLDY 33 25 72 SW7 30.13R  
#BOARDMAN SCHOOLN/A 34 28 78 S3 30.14S  
#I-84 EX 198 DOTN/A 33 24 69 SE3 N/A  
#UMATILLA N/A 30 23 75 CALM 30.09R  

 
 
ORZ507-050910-  
NORTHERN FOOTHILLS OF THE BLUES  
 
CITY SKY/WX TMP DP RH WIND PRES REMARKS
 
PENDLETON AIRPT CLEAR 31 21 66 SW6 30.10R  
#ADAMS 3WNW N/A 26 22 85 SW3 30.15R  
#ATHENA N/A 28 23 81 SW1 30.17R  
#CAYUSE N/A 32 23 69 SW8 30.14R  
#HELIX SCHOOL N/A 26 22 85 S3 30.15R  
#HOLDMAN 5SE N/A 30 25 81 SW6 30.09S  
#HOLDMAN 6E N/A 29 24 81 S7 29.95R  
#M-F GROVE ELEM N/A 30 21 69 S1 30.09R  
#M-FREEWATER 5SEN/A 33 23 66 S7 30.11R  
#PENDLETON DNTN N/A 30 17 58 CALM 30.13S  
#PDT AQUATIC CTRN/A 30 19 63 CALM 30.13R  
#PDT SUNRIDGE N/A 29 22 75 CALM 30.14R  
#PENDLETON 7NW N/A 31 23 72 SW7 31.38S  
#PILOT ROCK 1S N/A 28 17 63 S7 30.11R  
#PILOT ROCK N/A 27 20 74 W6 30.12S  
#TUTUILLA N/A 24 19 81 CALM 30.14R  
#UMAPINE 2E N/A 35 26 69 SW5 30.10R  
#WESTON SCHOOL N/A 30 20 66 SW6 30.01R  
 

 
 
ORZ508-050910-  
SOUTHERN FOOTHILLS OF THE BLUES  
 
CITY SKY/WX TMP DP RH WIND PRES REMARKS
 
LEXINGTON CLEAR 32 21 63 SW13 30.14S WCI 22  
#AJAX N/A 30 14 51 SE7 27.84S  
#CONDON SCHOOL N/A 26 22 85 SE3 30.03R  
#CONDON 5W N/A 24 18 77 SW7 30.02R  
#HEPPNER EOC N/A 31 21 66 SW9 30.09S  
#HEPPNER 4NE N/A 27 21 78 SW6 30.16R  
#LEXINGTON 2SE N/A 30 21 69 SW3 30.09S  
#MIKKALO N/A 32 20 61 SW6 30.20S  
#OLEX 4N N/A 32 24 72 S6 30.12R  
#RUGGS 5NE N/A 24 18 77 SW7 30.20S  
#RUGGS 2SW N/A 28 20 71 W9 30.18R  
 

 
 
ORZ502-503-050910-  
BLUE MOUNTAINS  
 
CITY SKY/WX TMP DP RH WIND PRES REMARKS
 
MEACHAM MOCLEAR 19 14 80 CALM 30.01S  
#BATTLE MTN DOT N/A 19 14 80 NW8 N/A  
#GREENHORN 9SW N/A 24 21 88 CALM 26.23R  
#HEPPNER 15SE N/A 21 18 88 NW2 30.01R  
#LADD CYN SMT N/A 24 13 62 NW8 N/A  
#LADD CREEK ODOTN/A 23 3 41 CALM N/A  
#LONG CREEK HS N/A 22 20 92 SW3 30.06R  
#N POWDER DOT N/A 24 13 62 N3 N/A  
#PIKES PEAK N/A 24 21 88 SW6 27.99S  
#TOLLGATE N/A 18 17 96 CALM 29.81R  
#TROY SCHOOL N/A 28 24 85 CALM 29.98R  
#UKIAH N/A 21 18 88 CALM 30.08R  
#WESTON 4E N/A 23 20 88 S3 30.11R  

 
 
ORZ505-050910-  
JOHN DAY BASIN  
 
CITY SKY/WX TMP DP RH WIND PRES REMARKS
 
JOHN DAY CLEAR 24 19 81 N5 30.07R  
#ANTELOPE 9ESE N/A 36 24 61 W6 N/A  
#DAYVILLE SCHOOLN/A 27 20 74 NW1 30.09R  
#MITCHELL N/A 26 22 85 CALM 30.26S  
#MITCHELL 8NW N/A 28 20 71 CALM 30.16R  
#MONUMENT HS N/A 25 20 81 CALM 30.14R  
#MT. VERNON 5SE N/A 20 18 92 CALM 30.01R  
#SPRAY SCHOOL N/A 24 N/A N/A CALM N/A  

 
 
ORZ506-050910-  
OCHOCO AND JOHN DAY HIGHLANDS  
 
CITY SKY/WX TMP DP RH WIND PRES REMARKS
 
#BUCK CREEK DOT N/A 23 20 88 SW5 N/A  
#HORSE RIDGE DO N/A 16 13 88 E1 N/A  
#KEYES SMT DOT N/A 20 17 88 SW6 N/A  
#PAULINA SCHOOL N/A 24 19 81 W3 N/A  
#PINE MTN OBS N/A 16 14 92 CALM N/A  
#SENECA N/A 17 N/A N/A N1 N/A  
#SENECA 9NW N/A 12 10 91 CALM 30.17R  

 
 
ORZ049-050910-  
GRANDE RONDE VALLEY  
 
CITY SKY/WX TMP DP RH WIND PRES REMARKS
 
LA GRANDE CLEAR 28 14 55 NW12 30.05R WCI 18  
#COVE N/A 28 23 81 CALM 30.08R  
#COVE SCHOOL N/A 27 21 78 CALM 30.07R  
#COVE 6NW N/A 28 21 75 CALM 30.15R  
#ELGIN 3N N/A 25 16 68 S1 30.03R  
#ELGIN 1E N/A 29 20 69 CALM N/A  
#IMBLER SCHOOL N/A 27 20 74 CALM 30.01R  
#ISLAND CITY 4N N/A 34 33 96 CALM 30.26S  
#LADD CYN DOT N/A 28 18 66 NW1 N/A  
#UNION 1S N/A 28 21 75 CALM 30.16R  

 
 
ORZ050-050910-  
WALLOWA COUNTY  
 
CITY SKY/WX TMP DP RH WIND PRES REMARKS
 
JOSEPH AIRPORT PTCLDY 12 9 87 S5 29.98R  
#IMNAHA SCHOOL N/A 30 23 75 SW1 30.06R  
#IMNAHA 10S N/A 29 18 63 CALM 30.02R  
#JOSEPH 3N N/A 19 8 62 NW1 30.00R  
#JOSEPH 3W N/A 14 8 76 CALM 29.80R  
#LOSTINE N/A 25 17 71 CALM 29.92R  
#LOSTINE 3SE N/A 24 15 68 CALM 30.00R  
#MT HOWARD 8000 N/A 5 2 87 W5 29.68S  
#PROMISE 1S N/A 22 17 81 E1 30.24R  
#WALLOWA SCHOOL N/A 26 19 74 CALM 30.01R  
 

 
 
CLICK HERE TO GO TO PREVIOUS BULLETINS.

The Nexlab OR Page
The Nexlab WA Page Main Text Page